Flag for Chile Weather past 2 weeks in Osorno, Chile

Now
54 °F

Passing clouds.


Feels Like: 53 °F
Forecast: 42 / 64 °F
Wind: 3 mph from North

Location: Puerto Montt Airport

Current Time: Mar 30, 2015 at 9:55:33 PM

Latest Report: Mar 30, 2015 at 9:00 PM


Visibility: N/A

Pressure: 30.21 "Hg

Humidity: 82%

Dew point: 48 °F

Location of OsornoLocation

Historic Weather in Osorno — Graph

°F

Osorno temperature yesterday

Maximum temperature yesterday: 61 °F (at 2:00 PM)
Minimum temperature yesterday: 50 °F (at 1:00 AM)
Average temperature yesterday: 54 °F

Past Weeks' High & Low Weather Summary

 TemperatureHumidityPressure
High81 °F (Mar 26, 5:00 PM)100% (Mar 17, 6:00 AM)30.33 "Hg (Mar 17, 6:00 AM)
Low37 °F (Mar 18, 8:00 AM)22% (Mar 25, 1:00 PM)29.77 "Hg (Mar 16, 5:00 AM)
Average55 °F76%30.07 "Hg
* Reported Mar 15 8:00 PM — Mar 30 8:00 PM, Osorno, Weather by CustomWeather, © 2015

Note: Actual official high and low records may vary slightly from our data, if they occured in-between our weather recording intervals... More about our weather records

Advertising

Osorno weather history for previous 24 hours

 ConditionsComfort  
Time TempWeatherWind HumidityBarometerVisibility
8:00 PM
Mon, Mar 30
55 °FPassing clouds.3 mph72%30.21 "HgN/A
7:00 PM57 °FPassing clouds.6 mph63%30.21 "HgN/A
6:00 PM57 °FPartly sunny.3 mph59%30.21 "HgN/A
5:00 PM59 °FPartly sunny.5 mph55%30.21 "HgN/A
4:00 PM61 °FPartly sunny.3 mph52%30.21 "HgN/A
3:00 PM57 °FPartly sunny.6 mph59%30.21 "HgN/A
2:00 PM57 °FPartly sunny.6 mph55%30.24 "HgN/A
1:00 PM57 °FPartly sunny.5 mph59%30.24 "HgN/A
12:00 PM57 °FPartly sunny.8 mph55%30.24 "HgN/A
11:00 AM55 °FPartly sunny.6 mph63%30.24 "HgN/A
10:00 AM52 °FPartly sunny.5 mph77%30.24 "HgN/A
9:00 AM50 °FPartly sunny.3 mph94%30.24 "HgN/A
8:00 AM48 °FPartly sunny.2 mph100%30.24 "HgN/A
7:00 AM50 °FPassing clouds.3 mph94%30.24 "HgN/A
6:00 AM50 °FOvercast.3 mph94%30.24 "HgN/A
5:00 AM50 °FOvercast.3 mph94%30.24 "HgN/A
4:00 AM50 °FOvercast.5 mph94%30.24 "HgN/A
3:00 AM50 °FMostly cloudy.3 mph94%30.24 "HgN/A
2:00 AM50 °FMostly cloudy.2 mph100%30.01 "HgN/A
1:00 AM52 °FOvercast.5 mph94%30.24 "HgN/A
12:00 AM52 °FPassing clouds.7 mph94%30.24 "HgN/A
11:00 PM
Sun, Mar 29
52 °FOvercast.3 mph94%30.24 "HgN/A
10:00 PM52 °FOvercast.2 mph94%30.24 "HgN/A
9:00 PM54 °FSprinkles. Overcast.5 mph88%30.24 "Hg5 mi
Weather by CustomWeather, © 2015

See weather overviewHow to use our weather pages